CW8633 Weather Reports


Display with metric or nautical units.
time (UTC)temp
F
wind
direction
speed
MPH
gust
MPH
rain 1hr
in
rain 24hr
in
rain mn
in
humidity
%
barometer
mb
20260504230737 67 269 11.0 18.0 0.00 0.00 0.00 34 1004.6
20260504225729 67 302 9.0 23.0 0.00 0.00 0.00 34 1004.6
20260504224736 69 277 13.0 21.0 0.00 0.00 0.00 32 1004.7
20260504223727 73 290 8.0 14.0 0.00 0.00 0.00 27 1004.4
20260504222737 74 261 1.0 8.0 0.00 0.00 0.00 21 1004.2
20260504221721 74 269 4.0 7.0 0.00 0.00 0.00 21 1004.1
20260504220730 74 252 6.0 10.0 0.00 0.00 0.00 23 1004.1
20260504215726 74 202 3.0 9.0 0.00 0.00 0.00 22 1004.3
20260504214730 74 234 2.0 7.0 0.00 0.00 0.00 23 1004.5
20260504213734 74 233 4.0 9.0 0.00 0.00 0.00 25 1004.8
20260504212719 74 278 5.0 8.0 0.00 0.00 0.00 25 1005.0
20260504211729 73 286 3.0 10.0 0.00 0.00 0.00 26 1005.1
20260504210735 73 244 2.0 7.0 0.00 0.00 0.00 29 1005.2
20260504205731 73 188 6.0 8.0 0.00 0.00 0.00 30 1005.4
20260504204740 73 210 4.0 8.0 0.00 0.00 0.00 27 1005.5
20260504203728 72 282 2.0 9.0 0.00 0.00 0.00 32 1005.6
20260504202741 72 119 3.0 10.0 0.00 0.00 0.00 32 1005.7
20260504201729 71 187 4.0 10.0 0.00 0.00 0.00 36 1005.8
20260504200737 71 128 4.0 8.0 0.00 0.00 0.00 34 1006.0
20260504195731 71 192 4.0 9.0 0.00 0.00 0.00 34 1006.2
20260504194722 71 122 2.0 5.0 0.00 0.00 0.00 34 1006.3
20260504193729 70 204 3.0 9.0 0.00 0.00 0.00 34 1006.5
20260504192734 69 135 5.0 8.0 0.00 0.00 0.00 34 1006.6
20260504191721 69 169 2.0 7.0 0.00 0.00 0.00 35 1006.7
20260504190731 69 196 5.0 8.0 0.00 0.00 0.00 34 1006.9
20260504185728 69 235 4.0 7.0 0.00 0.00 0.00 32 1007.1
20260504184755 69 232 4.0 9.0 0.00 0.00 0.00 33 1007.3
20260504183720 69 98 4.0 9.0 0.00 0.00 0.00 31 1007.5
20260504182732 68 252 3.0 9.0 0.00 0.00 0.00 34 1007.6
20260504181758 68 257 3.0 8.0 0.00 0.00 0.00 35 1007.7
20260504180738 68 225 2.0 6.0 0.00 0.00 0.00 32 1007.8
20260504175732 67 150 2.0 5.0 0.00 0.00 0.00 34 1008.0
20260504174740 66 205 1.0 5.0 0.00 0.00 0.00 35 1008.1
20260504173725 66 256 3.0 7.0 0.00 0.00 0.00 37 1008.1
20260504172736 65 188 3.0 5.0 0.00 0.00 0.00 39 1008.2
20260504171725 64 195 2.0 4.0 0.00 0.00 0.00 39 1008.2
20260504170732 64 215 2.0 5.0 0.00 0.00 0.00 37 1008.2
20260504150736 52 254 1.0 3.0 0.00 0.00 0.00 61 1008.7
20260504140732 50 49 1.0 3.0 0.00 0.00 0.00 61 1008.9
20260504130752 44 18 2.0 4.0 0.00 0.00 0.00 65 1008.7
20260504081735 46 17 2.0 4.0 0.00 0.00 0.00 58 1008.2
20260504080722 47 17 2.0 4.0 0.00 0.00 0.00 56 1008.3
20260504050727 51 191 2.0 3.0 0.00 0.00 0.00 45 1008.7
20260504045720 52 191 2.0 3.0 0.00 0.00 0.00 46 1008.7
20260504044725 53 191 2.0 3.0 0.00 0.00 0.00 44 1008.7
20260504043737 54 190 0.0 2.0 0.00 0.00 0.00 42 1008.7
20260504042726 55 190 0.0 3.0 0.00 0.00 0.00 41 1008.7
20260504041736 55 188 2.0 3.0 0.00 0.00 0.00 39 1008.8
20260504040729 56 188 1.0 4.0 0.00 0.00 0.00 47 1008.7
20260504035724 58 190 1.0 3.0 0.00 0.00 0.00 39 1008.7
20260504034730 62 200 2.0 11.0 0.00 0.00 0.00 32 1008.6
20260504033740 64 59 7.0 13.0 0.00 0.00 0.00 23 1008.4
20260504032747 64 96 8.0 12.0 0.00 0.00 0.00 24 1008.4
20260504031718 64 85 8.0 10.0 0.00 0.00 0.00 24 1008.4
20260504030748 64 94 6.0 10.0 0.00 0.00 0.00 24 1008.4
20260504025735 64 100 8.0 12.0 0.00 0.00 0.00 25 1008.4
20260504024720 64 65 6.0 12.0 0.00 0.00 0.00 26 1008.5
20260504023729 64 73 9.0 13.0 0.00 0.00 0.00 28 1008.4
20260504022737 65 66 3.0 8.0 0.00 0.00 0.00 26 1008.4
20260504021723 64 90 5.0 8.0 0.00 0.00 0.00 28 1008.4
20260504020733 65 128 3.0 4.0 0.00 0.00 0.00 35 1008.4
20260504015736 66 128 3.0 4.0 0.00 0.00 0.00 35 1008.5
20260504014729 68 128 2.0 4.0 0.00 0.00 0.00 34 1008.5
20260504013736 69 128 2.0 3.0 0.00 0.00 0.00 32 1008.6
20260504012723 70 194 2.0 3.0 0.00 0.00 0.00 34 1008.8
20260504011751 70 194 2.0 2.0 0.00 0.00 0.00 25 1008.8
20260504010721 71 194 1.0 2.0 0.00 0.00 0.00 27 1008.9
20260504005734 71 194 2.0 3.0 0.00 0.00 0.00 26 1009.0
20260504004741 72 194 2.0 4.0 0.00 0.00 0.00 23 1009.0
20260504003726 72 214 3.0 5.0 0.00 0.00 0.00 22 1009.2
20260504002753 72 157 4.0 6.0 0.00 0.00 0.00 19 1009.2
20260504001722 72 194 3.0 6.0 0.00 0.00 0.00 20 1009.3
20260504000722 72 198 4.0 6.0 0.00 0.00 0.00 23 1009.5
20260503235736 72 190 3.0 6.0 0.00 0.00 0.00 22 1009.5
20260503234722 72 205 3.0 7.0 0.00 0.00 0.00 27 1009.6
20260503233729 72 207 4.0 6.0 0.00 0.00 0.00 22 1009.6
20260503232720 72 225 4.0 9.0 0.00 0.00 0.00 26 1009.7
20260503231729 72 192 5.0 8.0 0.00 0.00 0.00 23 1009.7